GFSSE_925_thetae_057.txt.gz
Theta_e
336 334 334 333 332 334 336 335 337 335 335 334 334 334 334 333 333 333 334 335 334 338 339 337 336 335 333 333 331 330 330 330 327 327 328 330 330 331 331 331 331 332 333
336 336 335 334 335 335 336 336 338 335 334 333 334 335 333 333 332 331 332 333 336 338 336 336 335 332 330 330 329 327 324 325 326 326 326 326 327 327 328 328 329 329 329
339 339 335 335 334 335 336 335 337 335 334 332 331 330 330 329 329 329 331 331 336 335 334 333 331 328 328 327 324 324 323 324 325 325 325 326 326 327 327 326 327 327 327
340 340 339 335 332 334 337 336 337 333 332 333 331 329 327 326 327 329 330 331 334 332 332 331 328 328 325 322 320 321 323 325 325 326 326 326 325 326 326 325 326 326 326
339 339 340 333 333 334 336 336 336 333 330 334 333 331 327 325 325 328 329 330 333 332 330 328 327 325 323 323 322 323 324 325 325 325 324 324 324 325 325 325 325 325 325
339 339 338 332 333 334 336 336 335 334 331 334 333 332 328 325 324 326 328 329 330 328 327 325 324 324 324 323 321 323 324 324 324 325 325 325 326 328 327 327 326 327 326
339 339 335 332 334 334 331 334 334 334 331 333 332 330 327 324 323 324 325 327 326 324 323 322 322 322 323 319 321 323 324 325 328 328 328 329 329 329 329 329 327 325 326
338 338 337 332 334 333 330 334 333 333 332 330 329 327 326 324 323 322 322 323 322 319 318 319 320 320 316 317 320 322 324 324 324 323 324 325 325 325 326 326 323 322 322
339 338 338 338 336 331 331 333 333 333 333 330 330 327 325 323 321 320 320 320 319 316 316 317 315 311 313 317 320 319 318 318 319 319 320 320 320 322 322 322 321 319 319
338 338 338 337 337 336 334 331 333 333 333 332 330 327 324 322 321 320 319 318 316 312 307 305 306 309 312 315 315 321 322 322 323 322 321 321 322 322 321 322 319 317 315
337 337 338 337 338 336 336 334 332 334 333 332 330 327 325 325 324 324 321 317 316 313 309 306 305 307 310 312 319 320 320 321 321 322 322 321 323 324 322 320 317 315 313
338 338 338 338 338 337 336 336 335 335 334 334 332 328 330 328 328 323 318 316 314 313 312 310 309 312 315 316 316 318 318 317 318 320 321 322 323 322 319 317 315 313 311
336 337 338 338 339 338 337 336 336 335 335 334 333 331 331 330 327 323 318 315 313 312 312 312 313 314 315 315 314 314 316 315 316 319 318 318 320 319 317 315 313 311 309
336 336 337 337 338 337 338 336 336 336 335 335 334 333 332 331 327 326 320 316 313 312 312 313 313 313 312 311 311 311 313 314 314 315 315 316 317 315 316 314 311 309 308
334 335 333 334 337 337 335 333 335 336 336 335 335 334 333 331 329 327 322 319 317 314 313 313 312 311 309 308 307 308 309 311 311 309 312 312 313 314 313 310 309 308 307
333 334 333 334 334 333 333 333 332 332 335 336 335 334 334 332 329 327 323 319 318 315 313 312 312 310 307 303 304 303 304 306 307 306 308 309 310 309 309 308 308 307 306
333 333 334 331 333 332 332 332 333 331 330 331 334 335 334 333 331 329 325 321 317 315 314 311 310 308 311 304 299 298 298 299 301 301 304 305 305 304 305 305 305 305 304
331 332 333 331 331 331 331 331 331 331 331 331 332 333 334 333 332 330 327 324 323 317 317 313 311 304 310 301 297 295 294 294 294 295 299 299 298 299 301 302 302 302 302
328 330 331 329 326 327 327 328 329 330 331 331 331 331 333 332 332 331 329 326 324 318 316 316 310 305 308 299 296 295 293 293 292 292 293 296 295 295 296 297 298 299 299
325 327 327 326 324 324 324 323 323 325 328 330 330 330 330 330 330 329 329 328 324 316 316 312 308 303 304 303 295 294 293 292 291 291 290 290 289 290 290 291 292 295 296
319 320 322 322 320 320 319 318 318 318 321 324 328 328 328 328 328 328 327 328 322 319 319 315 305 300 297 296 293 292 291 291 291 291 290 289 288 288 287 287 288 288 290
316 318 317 316 316 316 317 317 317 317 318 319 320 325 326 325 326 326 326 326 324 318 315 309 306 297 295 295 296 294 293 291 290 290 290 289 288 287 286 286 286 286 287
313 315 315 315 315 315 316 317 316 316 317 316 316 319 324 324 325 325 326 326 324 319 315 312 307 303 295 294 296 299 298 300 292 289 289 288 288 287 286 285 285 285 285
314 313 314 314 314 314 315 316 316 315 314 313 313 316 321 323 324 324 326 326 322 321 316 314 310 305 301 296 297 299 300 297 297 291 288 287 288 288 286 285 284 284 284
314 313 313 312 313 313 314 315 315 314 313 315 316 315 319 321 322 324 323 323 319 317 317 316 309 303 302 302 300 298 297 298 297 296 292 288 287 287 287 286 285 284 283
313 312 312 312 312 312 313 314 315 314 314 316 314 313 318 320 320 319 321 320 321 318 314 313 310 304 302 302 301 299 297 295 294 295 294 290 288 287 287 286 285 285 284

GFSSE_925_thetae_060.txt.gz
Theta_e
333 332 332 335 335 334 335 336 334 333 334 335 334 333 332 333 333 332 333 338 338 337 336 335 334 332 329 330 330 330 330 327 326 327 329 329 331 331 330 329 330 330 330
335 333 334 332 333 335 335 337 333 330 334 335 332 332 333 332 332 332 333 337 336 336 334 332 330 330 329 327 326 326 327 326 326 325 326 327 327 328 328 328 328 328 328
334 334 333 333 334 334 335 337 333 328 333 333 332 331 331 331 332 332 335 335 335 334 331 329 329 328 326 323 324 324 325 326 326 326 326 326 326 327 327 327 326 328 328
337 337 334 334 333 335 335 337 334 329 332 331 329 328 328 330 331 332 334 333 333 332 329 329 328 326 325 323 324 325 326 327 326 324 324 326 326 326 326 327 327 326 325
339 339 338 333 333 335 335 337 334 330 333 333 330 328 327 329 330 331 333 332 332 329 328 327 326 325 325 325 325 324 324 323 324 323 324 325 326 327 327 328 328 325 326
338 339 339 331 333 335 335 336 334 329 334 333 331 328 326 327 329 330 331 331 328 327 326 325 325 325 323 323 324 324 325 325 325 326 327 328 328 330 328 327 327 326 325
339 339 337 331 333 334 335 335 334 329 333 333 331 328 326 326 327 329 329 327 325 324 324 324 324 320 321 323 325 326 326 326 327 328 328 329 328 328 326 325 324 323 323
339 338 332 332 334 333 334 334 334 332 331 331 329 327 325 325 325 326 325 323 321 322 322 322 322 316 321 323 323 324 324 322 323 323 323 325 326 325 323 321 320 320 320
337 337 333 333 335 332 332 333 333 333 330 329 327 326 323 322 322 320 321 320 319 319 320 320 313 316 320 319 318 318 319 319 319 320 319 321 323 323 322 320 317 316 316
337 337 337 336 334 331 332 333 333 333 332 329 327 325 322 320 319 319 319 317 316 315 316 312 310 315 317 319 321 322 321 320 320 319 321 320 323 323 319 317 315 315 314
338 336 337 336 335 333 331 333 334 333 333 330 329 325 322 320 320 321 318 316 312 309 307 306 309 312 318 319 319 320 321 322 322 322 322 323 323 321 318 315 314 313 312
337 336 336 336 336 335 334 331 333 333 333 331 329 325 326 324 325 321 318 316 313 311 309 308 309 311 317 318 319 318 319 320 321 322 323 322 322 319 316 314 313 312 311
338 336 336 337 337 336 336 335 332 333 333 333 330 327 328 327 326 320 317 315 313 312 311 313 315 315 315 315 317 316 317 319 321 320 321 320 319 317 315 313 312 310 310
336 337 338 339 337 337 336 335 334 334 334 333 332 329 330 328 327 320 319 316 313 312 312 313 314 315 314 313 314 315 315 316 316 317 318 316 316 317 313 311 310 309 308
337 336 336 336 338 336 335 336 335 334 333 334 334 332 331 330 327 324 320 317 314 312 313 313 314 313 313 312 312 312 314 314 314 314 314 314 316 314 311 311 309 309 307
334 336 336 335 335 335 335 336 336 335 335 335 334 334 332 332 328 327 324 319 316 314 314 314 312 311 311 310 309 310 310 310 311 310 312 312 311 310 310 309 308 308 306
333 334 335 334 334 336 336 335 333 332 335 336 335 335 333 333 331 328 325 321 319 315 314 313 312 310 307 307 305 306 307 306 306 308 309 309 308 307 307 307 306 306 305
331 333 335 334 332 334 333 333 333 331 331 331 331 334 334 334 332 330 328 323 320 315 314 313 313 308 303 303 301 299 300 301 302 303 303 305 304 304 304 304 304 304 303
329 332 333 334 333 332 332 332 332 332 332 331 330 330 332 334 333 332 329 325 321 316 314 313 312 309 302 299 298 296 295 295 295 299 298 297 297 300 301 301 301 301 301
327 331 333 333 332 331 331 332 330 331 331 331 331 329 331 332 333 332 329 327 322 318 315 313 312 308 302 297 295 294 293 292 292 292 295 296 295 295 296 297 298 298 298
324 327 331 332 331 329 329 328 328 328 328 330 330 329 329 330 331 331 328 327 323 322 319 316 308 304 299 296 294 293 292 292 291 291 290 290 290 290 290 291 293 294 295
319 324 328 329 329 327 325 325 324 325 324 326 328 329 328 328 329 328 329 326 325 321 317 309 309 302 298 296 297 293 291 290 290 290 290 289 288 288 287 288 288 289 289
317 320 323 325 326 324 323 322 320 319 319 319 321 323 327 327 327 326 325 326 324 323 320 315 312 309 300 296 299 299 295 294 290 290 290 290 289 287 286 286 286 287 287
315 316 318 319 319 320 319 318 318 317 316 317 318 318 317 324 325 324 323 325 322 322 318 317 315 308 306 297 296 300 300 297 291 287 289 289 289 288 287 286 285 285 285
315 314 315 317 316 316 315 316 317 316 315 316 316 316 316 315 319 320 321 320 321 321 319 318 310 304 305 302 300 300 299 296 297 290 287 287 287 288 288 286 285 284 284
315 314 314 314 315 315 315 315 316 316 316 315 314 314 313 313 315 316 318 319 320 321 319 316 312 311 305 304 302 301 300 298 297 296 289 287 286 287 287 287 286 285 284

GFSSE_925_thetae_063.txt.gz
Theta_e
332 331 333 333 334 334 338 333 327 332 333 334 332 333 334 333 332 337 338 337 336 335 334 331 331 330 330 331 330 329 328 330 330 330 329 330 331 331 329 329 328 329 329
332 331 332 336 334 334 338 333 328 332 333 333 332 331 333 334 335 337 336 335 334 332 330 330 329 328 329 329 330 330 328 325 325 325 326 327 327 328 328 328 328 328 328
332 333 332 333 334 335 337 333 327 331 333 333 332 332 332 333 335 336 335 333 332 330 329 328 326 327 327 326 326 328 329 326 326 325 325 326 326 327 327 326 327 327 326
333 333 332 332 333 335 336 333 327 330 331 330 330 330 331 332 335 335 334 331 330 329 328 327 326 327 328 327 327 327 325 323 324 325 325 325 327 330 328 327 328 330 332
333 333 333 331 334 335 335 333 327 328 330 330 328 329 330 332 333 334 333 330 329 327 327 326 326 328 326 325 326 322 323 324 324 326 325 327 327 329 328 329 328 327 326
338 335 334 331 333 334 334 334 327 329 331 330 328 328 330 330 332 332 331 329 327 326 326 325 327 326 324 324 325 324 324 325 326 327 328 328 327 329 329 326 324 323 322
339 338 335 331 333 335 334 334 328 331 332 330 328 328 328 329 330 330 328 326 325 325 325 324 324 323 325 325 325 325 325 328 328 328 328 326 326 325 324 323 322 321 320
338 339 334 331 333 335 335 335 331 331 331 329 327 327 327 328 328 327 325 324 324 324 323 316 322 323 324 325 324 324 325 325 325 326 324 323 323 322 322 321 320 319 318
337 338 332 332 333 334 334 334 333 331 329 327 326 325 325 325 325 323 321 322 322 322 321 315 322 321 319 320 320 320 322 322 322 322 323 321 322 320 318 317 317 316 316
336 336 331 332 334 332 333 333 333 331 329 327 325 322 322 320 319 317 318 320 321 321 312 313 318 319 319 320 319 319 318 318 318 319 322 323 321 318 317 316 315 314 313
335 335 332 332 334 331 333 332 332 333 330 328 325 322 320 319 319 318 316 315 315 311 307 311 317 318 319 320 320 319 320 320 321 321 323 320 319 317 316 315 314 313 312
335 335 335 333 333 331 332 333 333 333 332 329 326 322 320 319 320 318 316 312 310 308 308 312 318 319 318 319 320 320 320 321 322 323 321 319 318 316 314 313 313 311 311
335 335 335 335 334 333 332 331 333 333 333 331 328 323 322 323 323 318 317 314 312 309 310 312 315 317 318 318 318 318 319 322 322 322 321 318 316 315 313 312 312 310 309
336 335 334 334 335 334 333 333 331 332 333 332 330 326 325 325 326 319 317 315 313 310 313 315 315 315 316 316 316 317 320 321 321 320 319 317 314 315 313 312 310 309 309
336 335 335 335 335 334 333 333 333 331 333 332 331 329 328 327 326 321 317 316 314 313 314 314 315 315 314 314 315 316 315 316 318 316 316 315 314 313 312 311 310 309 308
334 335 336 337 337 335 334 334 333 333 333 332 332 331 329 328 327 325 319 316 314 314 314 314 315 314 314 313 314 315 315 315 315 314 314 314 312 311 311 310 309 308 307
334 335 333 336 337 337 336 334 334 334 333 333 334 333 330 331 329 328 323 317 316 315 314 314 314 312 312 311 312 312 313 313 313 312 313 312 310 310 309 309 308 307 306
331 332 334 334 333 334 336 335 332 334 335 334 334 334 334 332 332 329 327 324 316 314 314 314 313 310 310 310 310 309 309 309 310 310 310 309 308 307 307 307 306 306 305
330 331 333 334 335 334 333 333 334 335 334 335 334 335 335 334 333 331 329 327 321 314 314 315 312 310 306 305 305 306 306 305 305 306 306 306 306 305 304 304 304 304 303
326 330 332 333 334 334 333 334 333 333 332 331 331 331 331 333 333 332 330 329 325 317 313 313 313 307 305 301 298 297 298 300 300 300 301 301 301 302 301 302 302 301 301
324 327 331 333 334 334 332 332 332 331 332 332 332 331 330 330 331 333 331 329 327 319 316 313 310 306 300 297 295 292 292 292 293 294 297 297 296 296 298 299 300 299 299
319 326 329 332 333 333 332 331 330 330 330 331 331 331 331 329 329 332 331 329 328 320 314 312 311 302 297 297 295 292 292 291 291 291 291 292 294 293 292 294 296 295 295
318 322 326 329 332 332 331 330 329 329 328 329 329 330 330 329 328 327 328 328 327 322 317 315 311 307 300 296 299 299 294 295 289 290 290 290 289 289 289 289 290 289 289
316 318 322 325 329 331 331 329 328 325 323 323 324 327 328 329 329 328 326 327 326 323 320 316 313 310 304 298 296 300 300 297 293 289 289 290 290 289 288 287 287 287 288
314 316 318 322 326 328 329 327 325 323 321 320 320 320 321 324 327 327 325 324 325 323 320 319 311 307 307 304 299 300 298 296 294 290 289 288 288 289 288 287 286 286 286
314 314 316 318 321 322 323 324 322 321 319 317 317 316 316 317 318 318 323 322 323 322 319 318 316 313 310 305 302 303 302 298 297 293 288 286 288 288 288 287 286 285 285

GFSSE_925_thetae_069.txt.gz
Theta_e
332 336 335 335 338 332 334 333 332 332 334 334 334 337 337 336 336 336 333 332 331 330 331 331 330 330 331 332 331 332 331 331 331 331 331 331 330 330 328 327 327 328 329
332 334 335 334 337 331 330 332 332 332 333 335 335 336 337 337 336 334 332 332 330 330 330 331 330 330 328 328 329 330 330 328 328 328 328 327 327 328 330 328 327 327 328
332 333 334 335 337 328 331 333 331 332 334 333 333 336 336 336 335 333 332 330 329 329 330 329 330 331 330 329 327 328 327 326 325 324 326 326 327 331 331 330 331 333 333
332 333 334 334 337 329 322 328 328 333 332 330 334 336 335 335 334 332 330 329 328 329 330 329 330 331 329 329 327 327 325 326 326 325 325 330 332 332 332 331 330 329 329
332 334 335 334 336 330 324 325 328 328 330 332 334 335 335 334 333 331 329 328 327 328 329 329 330 330 328 327 327 326 325 325 326 326 329 328 328 328 327 326 326 325 323
332 332 333 334 336 332 324 325 328 330 331 332 332 334 334 333 331 330 328 327 327 328 328 328 329 328 328 327 327 324 325 325 327 326 326 326 326 326 325 324 323 321 322
332 331 332 334 335 333 326 326 327 329 330 332 331 332 332 331 331 329 327 327 327 328 327 328 329 328 326 327 326 325 326 325 326 326 325 324 323 324 323 322 321 320 319
332 332 332 334 334 334 329 324 326 326 327 330 330 331 330 330 328 327 326 326 325 327 327 327 328 327 324 325 326 325 326 324 323 322 321 321 321 324 322 319 318 318 318
333 333 331 333 334 334 331 326 326 326 325 326 327 329 329 327 325 326 325 325 324 325 326 327 326 325 324 325 325 324 324 323 322 321 320 320 321 321 320 318 317 316 316
335 334 331 332 334 333 333 329 327 327 325 324 324 325 325 321 320 320 322 323 324 325 325 325 324 323 324 324 323 323 322 321 320 319 318 319 320 320 317 316 316 315 314
337 336 332 331 333 333 334 332 330 328 326 324 323 322 322 319 316 317 318 320 322 323 322 322 322 321 321 322 321 321 321 321 320 318 318 317 318 318 315 315 314 313 313
337 337 334 331 333 334 334 333 331 329 327 325 322 321 320 318 316 316 317 315 313 317 319 320 319 319 319 319 318 318 319 322 320 318 317 316 317 315 314 314 313 312 312
337 337 334 332 331 333 334 333 333 331 328 326 323 321 319 318 316 316 315 314 311 314 315 317 318 318 318 319 318 318 319 321 319 317 317 316 316 315 314 313 312 311 311
336 334 334 333 331 332 332 333 333 332 330 328 325 322 320 319 318 317 315 314 310 313 314 315 315 316 318 319 320 320 320 320 319 317 316 315 314 315 314 312 311 311 310
334 334 333 333 331 332 332 332 333 332 332 330 327 324 321 320 320 318 316 315 312 312 314 315 315 317 317 318 318 318 319 319 320 317 316 315 313 313 314 313 311 310 309
335 334 333 333 332 331 331 331 331 332 332 331 330 327 323 321 322 321 318 316 313 313 313 314 315 315 316 316 317 317 318 319 320 318 315 314 313 312 313 312 311 310 309
334 334 334 333 332 332 332 331 330 330 330 330 331 330 326 324 324 325 322 317 316 313 312 314 315 315 315 315 316 317 319 320 320 318 316 314 313 311 312 312 311 310 309
333 334 334 334 333 333 333 332 331 331 330 329 329 329 329 326 326 326 325 322 318 314 313 314 315 314 314 314 315 316 317 317 317 317 316 314 313 311 311 311 310 309 308
331 332 333 334 334 334 333 333 332 332 331 330 329 330 330 330 328 327 327 326 322 315 313 313 313 313 312 312 313 313 313 313 313 314 313 313 313 311 310 310 309 308 308
328 330 332 334 334 334 333 333 333 333 333 331 330 329 331 330 330 329 328 327 326 319 314 313 313 312 311 310 310 310 310 310 311 311 311 312 312 311 310 309 308 307 307
323 326 328 331 334 334 334 334 334 334 334 333 331 331 330 330 331 331 329 328 327 323 322 314 312 311 309 307 306 303 304 304 307 308 310 310 310 310 310 309 307 306 306
313 319 324 326 328 330 333 334 334 334 333 334 333 331 329 330 332 332 331 330 329 327 320 317 313 311 307 305 303 297 296 298 300 303 306 307 308 308 308 308 306 305 305
309 312 317 321 324 327 330 331 331 332 331 332 332 332 331 329 333 333 331 329 329 327 325 323 318 313 306 306 303 304 295 299 293 297 301 301 303 305 305 305 304 304 304
310 310 312 317 322 325 328 331 331 330 329 329 329 331 331 330 332 331 331 330 329 327 325 323 322 315 310 302 299 303 302 300 296 296 292 294 298 298 300 302 302 302 302
310 309 310 314 320 325 327 329 330 330 330 330 329 329 329 330 330 330 329 329 329 328 326 323 318 315 312 308 305 303 298 297 296 295 299 291 290 294 294 297 298 298 299
311 310 310 313 320 324 326 328 329 329 329 329 328 328 328 327 327 328 328 328 327 327 326 324 322 318 316 312 307 306 304 302 299 294 293 291 290 293 292 290 292 294 295

GFSSE_925_thetae_072.txt.gz
Theta_e
334 335 334 336 336 331 333 334 333 332 335 335 335 336 336 336 335 332 332 331 332 331 330 331 331 331 332 332 332 332 331 331 330 330 330 330 329 328 328 327 327 328 328
333 334 335 337 332 330 332 331 331 332 335 336 337 337 337 336 334 333 331 329 331 330 330 331 328 328 330 329 329 329 329 328 328 327 325 327 328 327 328 327 328 330 332
334 334 334 337 328 330 333 331 332 332 335 334 337 337 336 335 334 332 330 329 330 330 329 330 330 329 327 328 327 327 327 324 326 325 328 331 331 333 332 333 332 331 331
333 334 334 334 328 328 331 330 330 332 334 335 337 336 336 335 333 331 329 329 330 330 329 331 330 329 328 327 327 327 326 325 325 327 330 332 331 332 331 329 329 328 328
332 333 334 336 329 328 328 323 328 332 333 336 335 335 335 333 331 330 329 328 329 329 328 331 330 328 327 327 326 326 326 325 328 327 326 327 327 328 327 326 324 323 323
332 333 334 336 331 322 324 327 330 332 333 334 334 334 333 332 330 328 328 328 328 327 328 328 328 328 327 326 326 325 325 325 325 325 324 324 324 326 325 324 322 321 321
333 333 334 335 333 324 324 326 327 330 331 332 332 333 332 330 328 327 327 328 327 326 327 329 329 328 327 325 325 324 324 325 325 323 322 321 322 323 324 322 320 320 320
332 332 332 334 334 327 325 327 327 327 328 328 331 330 329 329 328 327 327 326 326 326 327 328 327 325 325 325 325 324 323 322 323 321 320 321 324 323 321 320 319 319 318
332 331 332 334 334 331 327 327 326 326 325 325 328 329 328 327 327 326 326 326 326 326 327 326 326 323 324 325 324 324 323 322 320 320 320 319 318 321 320 319 317 317 316
332 332 332 333 334 333 328 326 326 325 324 325 326 327 325 323 324 322 323 324 326 325 326 326 324 324 324 324 323 322 321 321 320 319 318 319 319 319 318 316 316 316 315
333 333 332 333 334 333 331 328 327 326 324 324 324 325 321 318 318 318 319 323 324 325 327 323 323 323 324 323 322 322 321 321 319 318 318 317 317 318 317 315 315 314 314
335 334 332 331 333 333 333 331 329 327 325 324 323 322 320 317 316 317 318 319 322 323 322 321 321 321 321 321 320 321 321 320 319 317 316 316 316 316 315 314 313 313 312
337 336 334 331 332 333 334 332 331 329 326 325 323 321 320 317 316 317 317 317 318 318 318 319 319 318 318 318 317 318 320 320 319 317 316 315 316 315 315 314 312 312 311
336 336 335 332 332 333 333 333 332 331 329 326 324 322 320 318 317 317 316 314 312 313 314 316 317 317 317 318 319 318 320 319 318 317 316 315 315 314 314 313 312 311 311
335 336 336 334 332 332 333 333 334 332 330 329 326 323 321 319 318 317 316 315 312 313 314 314 315 316 317 319 319 319 320 318 318 317 316 315 314 314 314 314 312 311 310
334 335 335 334 333 332 332 332 334 335 330 330 329 326 323 320 319 319 317 316 314 312 314 314 314 316 317 317 318 318 319 319 319 317 316 315 314 314 312 313 313 311 310
334 334 334 333 333 332 331 331 332 335 334 334 330 329 326 323 321 321 321 318 317 314 314 315 315 315 316 316 316 317 318 318 318 318 317 315 314 313 312 313 313 312 311
333 334 334 333 333 332 332 331 331 331 332 333 331 330 329 327 324 323 323 323 319 316 313 313 313 314 314 315 315 316 317 318 319 319 316 315 314 313 312 312 312 312 311
331 332 333 333 333 332 332 332 331 331 330 330 330 329 327 327 327 325 325 325 324 319 316 313 313 314 314 313 314 314 316 318 319 318 318 315 314 313 312 311 311 310 310
328 330 331 332 333 333 332 332 332 332 331 331 331 330 329 327 328 327 326 326 326 324 318 315 313 314 313 313 312 311 312 313 314 315 316 316 314 313 312 311 310 310 309
323 325 329 330 331 332 332 332 332 331 332 332 332 331 330 329 329 328 329 328 327 326 326 320 314 312 313 311 309 309 310 310 310 310 312 313 311 311 311 311 311 310 309
311 317 323 327 329 331 332 332 332 331 332 331 332 332 332 330 329 329 328 328 329 326 325 323 319 314 312 310 309 302 303 306 308 310 309 309 311 311 310 310 310 310 309
307 309 315 321 325 328 331 332 332 332 331 332 331 332 333 332 330 330 329 329 329 328 326 324 321 314 311 310 308 309 298 303 298 304 307 308 309 308 310 309 309 309 309
307 307 309 313 320 324 328 331 332 331 330 330 330 331 333 333 332 331 330 328 330 330 327 325 325 320 313 307 302 306 309 302 301 303 301 302 302 305 306 308 307 307 307
309 308 308 309 314 320 325 327 329 329 329 329 329 329 329 329 330 330 330 329 329 329 327 326 324 320 317 311 307 306 302 300 299 297 307 304 300 300 301 301 304 306 305
310 311 310 311 314 319 322 325 327 328 329 329 329 329 329 329 328 328 328 328 328 328 327 326 326 324 321 315 311 309 308 303 300 298 298 302 300 303 306 298 301 300 302

GFSSE_925_thetae_075.txt.gz
Theta_e
333 333 334 336 336 336 335 335 335 334 333 334 336 336 336 335 334 330 331 331 330 331 331 331 332 332 332 332 332 331 330 330 330 329 330 329 330 329 328 326 328 329 330
333 333 336 335 332 336 330 332 332 334 334 337 337 337 336 335 333 331 330 330 330 331 330 330 331 330 330 329 329 329 328 327 325 328 328 327 329 331 331 332 334 334 333
333 334 336 330 325 331 331 331 331 333 336 337 337 337 335 334 332 331 330 329 330 330 331 329 328 329 328 328 327 327 327 326 328 329 330 334 333 333 332 330 330 331 331
333 334 337 326 327 330 330 330 331 334 335 337 337 336 334 332 331 329 330 329 329 330 331 329 328 327 327 326 326 325 326 326 331 331 330 330 331 330 329 329 329 329 328
333 334 335 330 330 330 330 330 332 331 334 336 336 335 333 331 330 329 330 328 328 329 330 329 328 327 326 326 326 326 326 328 326 327 326 327 328 328 327 326 325 324 323
333 334 335 330 324 325 323 323 324 330 333 335 334 333 332 329 329 328 329 328 326 327 328 327 327 327 325 326 325 325 326 325 323 323 323 322 325 326 325 323 321 321 321
333 334 335 333 323 322 323 324 329 326 330 333 333 332 330 329 328 328 329 327 326 327 327 328 327 326 325 325 324 324 324 323 323 321 321 322 324 324 323 321 321 320 321
332 334 335 334 327 323 325 326 326 328 327 331 331 330 329 328 328 327 328 327 325 327 329 327 325 325 325 324 323 322 322 322 321 320 321 323 323 322 322 320 319 319 318
333 334 334 335 331 324 325 325 326 326 326 329 331 329 327 326 326 326 326 326 326 326 329 326 325 324 324 323 322 321 321 320 319 320 319 319 319 322 320 318 318 317 317
332 332 333 334 333 328 327 326 326 325 325 326 328 326 323 322 323 323 323 325 325 326 325 326 323 323 325 323 323 322 321 320 319 319 318 320 320 320 318 317 316 316 315
332 332 332 333 334 331 327 326 326 325 325 324 325 324 320 319 319 320 322 324 323 325 325 324 323 323 324 323 322 322 321 320 319 318 318 317 316 318 317 316 315 315 314
333 333 332 333 334 333 330 328 327 325 324 323 323 322 319 317 318 318 319 323 322 324 325 322 322 322 322 322 322 321 321 320 318 317 317 315 316 317 316 314 314 313 313
332 334 333 333 333 333 332 330 328 326 325 324 323 322 320 317 317 317 317 319 320 321 320 319 320 320 319 319 319 319 320 319 318 316 316 315 315 316 315 314 313 312 312
332 335 333 332 333 334 333 332 330 329 327 325 323 322 320 318 317 317 316 315 314 315 315 317 317 317 317 316 317 318 319 319 318 317 316 315 315 315 315 313 313 312 311
334 337 335 333 332 333 336 333 331 330 329 327 325 323 321 319 318 317 317 315 313 313 313 314 315 315 316 318 318 319 319 319 317 317 317 315 315 315 315 315 313 312 311
335 335 335 335 333 333 335 336 334 331 330 329 327 325 323 321 319 318 318 317 315 313 314 314 314 314 316 317 318 318 319 319 318 318 317 316 315 314 314 315 314 313 311
334 334 334 335 334 333 334 336 333 333 332 329 329 328 326 323 321 320 319 319 318 316 314 315 315 315 316 316 317 317 318 318 318 318 317 316 315 314 313 314 315 314 313
333 333 333 334 334 333 333 335 335 333 333 331 331 329 328 326 324 322 322 323 321 318 315 314 315 315 315 315 315 316 316 317 318 319 318 317 316 315 313 312 314 314 314
332 333 333 333 333 333 333 332 332 333 333 332 331 332 330 329 327 325 325 325 324 322 318 316 314 314 314 314 315 315 315 315 317 318 319 318 316 315 314 312 312 312 312
329 331 332 333 333 333 332 332 332 332 333 333 332 332 329 329 327 326 326 326 325 323 321 319 316 314 313 314 314 313 314 315 315 316 318 318 317 315 314 313 312 312 311
321 326 329 330 331 332 332 331 331 330 332 332 331 333 332 329 328 326 326 327 326 325 326 324 319 316 313 313 311 311 312 313 312 313 314 316 318 317 315 313 312 311 311
309 318 324 327 328 330 331 331 330 330 330 331 331 333 332 331 330 329 328 327 326 325 325 325 323 317 314 313 311 306 310 311 312 313 313 313 314 314 315 315 313 311 310
305 308 314 321 325 327 329 330 331 330 330 329 329 329 333 331 331 331 330 329 329 328 326 327 325 320 315 316 312 311 303 307 304 310 312 312 312 312 313 313 312 311 310
305 306 307 312 319 324 327 329 329 330 329 329 329 329 329 330 330 331 332 331 329 328 327 325 326 324 318 312 309 308 311 310 307 307 307 310 309 309 310 308 311 311 310
309 306 305 306 312 318 323 327 329 329 330 330 330 329 329 329 329 330 330 330 330 329 329 326 324 324 321 317 314 311 308 305 302 301 309 310 308 311 311 308 306 306 308
310 312 311 309 311 316 320 323 326 327 328 329 329 328 328 328 328 328 328 327 327 327 327 326 326 326 324 320 317 314 311 307 303 302 301 304 306 308 308 309 309 309 307